Game Details

[ Leader Board ] [ Players ] [ Opponents ] [ Guilds ] [ Areas ]

Game Details for: beef

Game Progress

Quest Completed on Day
Mushroom Stew 8

Full Telemetry

Time Game Day Game Hour Game Minute Type Details Value Extra Zone X Y Credits Guild
5/7/2020 10:22:41 PM 16 8 41 Daily beef 1279 Village1 10 27 288 None
5/7/2020 10:19:40 PM 15 10 12 Arena Win 5 Village1 10 7 225 None
5/7/2020 10:18:18 PM 15 8 52 Arena Win 4 Village1 10 7 125 None
5/7/2020 10:17:03 PM 15 8 46 Equip Fine Kinetic Field 208 Village1 22 25 4 None
5/7/2020 10:11:58 PM 15 8 58 Arena Loss 3 Village1 10 7 177 None
5/7/2020 4:15:04 PM 15 11 29 Equip Fine Kinetic Field 208 Village1 22 25 120 None
5/7/2020 4:14:01 PM 15 10 2 Arena Loss 4 Village1 10 7 292 None
5/7/2020 4:12:13 PM 15 8 59 Arena Win 4 Village1 10 7 268 None
5/7/2020 4:10:21 PM 15 4 42 Daily beef 1186 Village1 10 27 142 None
5/7/2020 4:09:23 PM 14 4 22 Daily beef 1186 Village1 6 26 111 None
5/7/2020 4:08:48 PM 13 14 14 Equip Fine Cloth Armor 148 Village1 22 25 47 None
5/7/2020 4:06:52 PM 13 12 47 Arena Loss 3 Village1 10 7 205 None
5/7/2020 4:05:58 PM 13 12 46 Equip Kinetic Field 133 Village1 4 9 187 None
5/7/2020 4:05:43 PM 13 12 46 Train Intelligence 2 Village1 4 9 187 None
5/7/2020 4:05:22 PM 13 9 25 Arena Win 3 Village1 10 7 231 None
5/7/2020 4:04:02 PM 13 8 25 Arena Win 2 Village1 10 7 146 None
5/7/2020 4:02:12 PM 13 8 11 Daily beef 896 Village1 10 27 91 None
5/7/2020 4:00:05 PM 12 12 22 Arena Loss 1 Village1 10 7 271 None
5/7/2020 3:59:04 PM 12 12 21 Train Tech 2 Village1 5 8 265 None
5/7/2020 3:58:57 PM 12 9 20 Arena Win 1 Village1 10 7 297 None
5/7/2020 3:56:12 PM 12 8 56 Daily beef 876 Village1 10 27 285 None
5/7/2020 3:49:14 PM 11 0 54 Daily beef 876 Village1 6 26 120 None
5/7/2020 3:48:58 PM 10 11 47 Daily beef 876 Village1 10 27 102 None
5/6/2020 11:50:44 PM 9 14 32 Train Accuracy 2 Village1 5 8 39 None
5/6/2020 11:50:36 PM 9 12 32 Train Speed 2 Village1 5 8 71 None
5/6/2020 11:50:30 PM 9 10 32 Train Endurance 2 Village1 5 8 95 None
5/6/2020 11:49:59 PM 9 8 24 Equip Needle Gun 143 Village1 22 25 119 None
5/6/2020 11:49:05 PM 9 8 21 Daily beef 720 Village1 10 27 284 None
5/6/2020 11:47:57 PM 8 20 6 Quest Mushroom Stew 0 BuildingHouse1 6 9 189 None
5/6/2020 11:42:28 PM 8 19 18 Equip Cloth Armor 73 Village1 22 25 118 None